sat.trackr.live / text

‹ back to catalog

TRACERS 2

NORAD 64873 · 2025-154E

PAYLOAD ACTIVE UNKNOWN

§ Identity

Operator
Country
US
Launch date
2025-07-23
Launch site
AFWTR
Launch vehicle
Mass (kg)
RCS (m²)

External: N2YO · Heavens-Above · Gunter

§ Orbital elements

Epoch: 2026-05-25T03:01:03.930816Z

Period
96.42 min
Inclination
97.6702°
Eccentricity
0.0004383
Mean motion
14.93394104 rev/d
Perigee alt
584.3 km
Apogee alt
590.4 km
Semi-major
6,965.5 km
B*
1.4322e-4
RAAN
209.3432°
Arg perigee
35.3205°
Mean anomaly
324.8304°
Rev number
4,555

§ Raw data

TRACERS 21 64873U 25154E   26145.12573994  .00001448  00000+0  14322-3 0  99942 64873  97.6702 209.3432 0004383  35.3205 324.8304 14.93394104 45551

JSON: /api/v1/satellites/64873 · /tle

For live sub-satellite position, see the globe view (requires WebGL).

§ Visibility from observer

Set your observer location to see the next 7 days of passes ≥ 10°. The values pass through the URL so the page stays shareable.

No JS? Fill the form by hand. The geolocation button needs JavaScript.